Temperature
19 17 17 17 18 18 18 18 18 18 18 18 17 17 17 18 17 17 17 18 18 19 19 19 18 18 18 18 18 18 17 17 17 17 16 16 16 16 16 16 16 16 15 15
17 17 18 18 18 18 18 18 18 18 18 18 17 17 17 17 17 17 17 18 18 19 19 19 18 18 18 18 18 18 17 17 17 17 17 16 16 16 16 16 16 15 15 15
18 18 19 19 19 18 18 18 18 18 18 18 18 17 17 17 17 17 17 18 18 19 19 19 18 18 18 18 18 18 17 17 17 17 17 16 16 16 16 16 16 15 15 15
18 18 19 19 19 18 18 18 18 18 17 16 17 16 16 16 16 16 17 17 18 18 19 19 18 18 18 18 18 18 17 17 17 17 16 16 16 16 16 16 16 15 15 15
18 18 19 19 19 19 18 18 18 18 17 16 16 15 15 15 16 16 16 17 18 18 18 18 18 18 18 18 18 18 17 17 17 17 16 16 16 16 16 15 15 15 15 15
18 18 19 19 19 19 18 17 16 14 14 15 16 15 15 15 16 16 16 17 18 18 18 18 18 18 18 18 18 17 17 17 17 16 16 16 16 16 16 15 15 15 15 15
17 18 18 19 19 18 17 16 15 15 14 15 15 15 15 16 16 16 16 17 17 18 18 18 18 18 18 18 17 17 17 17 16 16 16 16 16 16 15 15 15 15 15 15
16 16 18 18 18 17 17 16 15 15 15 14 15 15 15 16 16 17 17 17 17 17 17 17 18 18 18 17 17 17 17 17 16 16 16 16 15 15 15 15 15 15 15 15
16 16 18 18 18 17 16 15 15 14 14 14 14 15 16 16 16 16 16 16 16 17 17 17 17 17 17 17 17 17 17 16 16 16 16 16 15 15 15 15 14 14 14 14
16 16 17 17 18 17 16 14 13 14 14 14 15 15 14 16 15 15 15 15 16 16 17 17 17 17 17 17 16 16 16 16 16 15 15 15 15 15 15 14 14 14 14 14
16 15 16 16 17 17 16 15 13 12 13 13 14 14 15 15 15 14 14 15 16 16 16 16 17 16 16 16 16 16 16 16 15 15 15 15 15 15 14 14 14 14 14 14
14 13 14 15 16 16 16 15 14 14 13 12 13 14 15 14 14 14 15 15 15 16 16 16 16 16 16 16 16 15 15 15 15 15 15 15 14 14 14 14 14 14 13 13
14 13 14 15 15 15 16 15 14 13 12 11 12 14 14 13 14 14 14 15 15 15 15 15 15 15 15 15 15 15 15 15 15 14 14 14 14 14 14 14 14 14 13 13
14 13 13 14 15 15 15 15 14 13 12 12 12 14 14 13 13 13 14 14 15 15 15 15 15 15 15 15 15 15 14 14 14 14 14 14 14 14 13 13 13 13 13 13
13 13 14 14 14 15 15 15 14 14 13 13 13 13 13 13 13 13 14 14 14 14 14 15 14 14 14 14 14 14 14 14 14 13 13 13 13 13 13 13 13 13 13 13
12 13 13 14 14 14 14 14 14 13 13 13 13 13 13 13 13 13 13 13 13 14 14 14 14 14 14 14 14 14 14 13 13 13 13 13 13 13 13 13 13 12 12 12
11 12 12 12 13 14 13 13 13 13 13 13 13 13 12 12 12 13 13 13 13 13 13 13 13 14 13 13 13 13 13 13 13 13 13 12 12 12 12 12 12 12 12 12
11 10 10 11 13 13 13 13 13 13 13 12 12 12 12 12 13 13 13 13 13 13 13 13 13 13 13 13 13 12 12 12 12 12 12 12 12 12 12 12 12 12 11 11
10 10 10 10 11 12 13 13 13 13 12 12 11 11 12 12 12 12 13 12 12 12 12 12 12 12 12 12 12 12 12 12 12 12 12 12 12 11 11 11 11 11 11 11
9 9 9 9 11 12 13 13 13 13 12 12 11 11 11 11 10 10 12 12 12 12 12 12 12 12 12 12 11 11 11 11 11 11 11 11 11 11 11 11 11 11 11 11
10 9 9 9 10 11 12 12 13 12 12 12 12 12 11 10 11 12 11 12 11 11 11 11 11 11 11 11 11 11 11 11 11 11 11 11 11 10 11 11 11 10 10 10
10 9 9 9 10 11 12 11 11 11 12 12 12 12 11 11 11 11 11 11 11 11 11 11 11 11 10 10 10 10 10 10 10 10 10 10 10 10 10 10 10 10 10 10
9 9 9 9 10 11 11 12 12 12 12 12 12 11 11 11 11 11 11 10 10 10 10 10 10 10 10 10 10 10 10 10 9 10 10 10 9 9 9 9 10 9 9 9
8 8 8 8 9 10 11 12 12 12 12 12 11 11 11 10 10 10 10 10 10 10 10 10 10 10 10 10 9 9 9 9 9 9 9 9 9 9 9 9 9 9 9 9
8 8 7 8 8 10 11 11 11 11 11 11 11 11 10 10 10 10 9 9 9 9 9 9 9 9 9 9 9 9 9 9 9 9 9 8 8 8 8 8 8 8 8 8
7 7 8 8 10 9 10 11 11 11 11 10 10 10 10 10 9 9 9 9 9 9 9 9 9 9 9 9 8 8 8 8 8 8 8 8 8 8 8 8 8 8 8 7
Wind_Speed
5 5 1 4 4 4 3 2 3 4 3 2 4 6 7 4 4 5 5 5 6 7 5 3 3 3 3 3 3 3 3 3 4 2 2 2 1 1 1 1 2 3 3 3
6 1 3 2 3 3 2 1 2 3 2 1 3 5 5 3 5 6 8 8 7 6 3 3 4 3 4 4 4 4 4 3 3 3 2 2 2 1 1 1 2 2 3 3
3 3 1 3 2 2 1 3 4 3 3 3 2 6 4 3 2 2 3 4 5 6 6 4 5 5 4 5 5 5 4 3 3 3 3 3 3 2 2 1 1 1 2 2
0 2 2 2 1 3 3 5 4 2 1 3 1 3 6 4 4 3 3 4 5 5 5 5 5 5 5 6 4 4 4 3 3 3 4 4 3 2 2 1 1 1 2 2
1 1 2 1 3 3 4 1 1 0 2 1 2 1 7 4 4 5 5 5 5 5 6 6 6 6 5 4 4 4 3 3 2 3 4 4 3 2 1 1 1 1 1 1
2 1 2 3 1 1 2 4 5 5 4 1 3 2 6 4 5 5 5 4 5 5 5 4 4 3 3 3 3 3 4 3 3 3 3 4 3 3 3 2 1 1 0 0
4 4 2 1 2 3 4 5 3 4 3 4 3 2 7 6 5 5 5 4 4 4 4 4 3 4 3 4 3 3 4 3 3 4 4 4 4 4 4 3 3 2 1 1
0 4 3 0 2 2 2 5 5 4 4 4 3 4 6 5 3 3 2 2 1 1 3 4 5 5 4 4 4 4 4 4 3 4 3 3 3 2 2 3 3 3 2 3
3 4 4 1 1 5 3 3 4 5 2 1 5 6 6 3 4 4 3 3 2 0 1 2 3 4 3 4 4 4 4 3 3 4 3 2 3 3 2 3 3 2 2 2
5 3 4 3 3 3 3 6 4 4 3 3 5 4 4 5 5 4 3 2 2 2 1 0 1 2 3 3 3 3 3 4 3 3 3 3 3 3 2 2 3 3 3 2
2 2 4 3 1 2 2 3 4 3 4 4 3 6 3 4 4 3 3 3 2 1 1 0 1 2 2 2 2 3 2 2 2 3 3 3 2 2 2 3 4 4 3 2
2 3 2 5 4 2 3 4 5 3 3 3 3 6 4 2 3 1 2 3 2 2 1 0 0 1 2 2 2 2 2 2 3 3 3 3 2 2 2 3 4 3 3 3
3 4 2 5 4 3 1 2 3 4 3 4 4 6 3 2 2 2 2 2 2 2 2 2 2 1 1 2 2 3 3 3 2 2 2 2 3 3 3 3 4 4 4 3
4 3 5 7 6 3 3 3 3 4 3 5 7 7 7 6 5 4 3 3 2 2 2 1 1 1 2 2 2 2 3 3 2 2 2 3 4 4 4 4 3 4 4 3
4 2 3 5 5 3 4 5 5 6 7 8 7 7 8 6 5 4 3 3 2 2 2 2 2 2 2 2 2 2 2 2 3 2 3 4 5 4 4 3 4 4 4 4
3 2 1 3 3 2 4 6 5 6 5 6 5 6 5 4 2 2 3 2 2 3 3 3 3 3 3 3 3 3 3 3 3 3 4 4 3 3 4 4 4 4 4 4
1 3 1 3 4 4 5 5 4 3 2 4 6 6 2 2 2 3 3 2 2 3 3 3 3 4 4 4 3 3 4 3 3 3 4 4 4 4 4 4 4 5 5 4
5 4 3 1 1 5 6 2 2 3 3 3 3 3 2 3 2 2 1 2 3 3 4 4 4 4 4 3 3 2 2 2 3 3 4 4 4 5 4 4 5 5 4 4
5 6 3 3 3 6 5 3 1 3 4 2 3 3 2 2 3 3 3 2 3 3 3 4 4 4 3 3 2 1 2 2 2 4 5 5 5 5 5 5 6 5 4 5
4 4 4 3 3 5 6 3 1 2 4 3 2 2 1 2 2 4 4 4 4 4 3 3 3 3 3 3 2 1 2 2 3 4 5 5 5 5 6 6 5 4 4 6
2 2 3 4 5 6 6 3 2 2 5 3 2 3 2 3 5 4 4 4 3 4 4 3 3 3 3 3 1 2 2 3 5 4 3 3 4 5 5 4 4 4 4 4
5 4 5 4 4 7 3 2 4 5 2 1 1 2 2 3 3 4 4 4 4 4 3 3 2 3 3 3 2 3 4 5 4 3 2 3 3 3 2 3 3 3 3 4
5 6 5 7 6 3 2 3 2 1 1 2 1 2 2 3 4 4 4 4 4 4 4 2 1 3 3 3 2 3 5 4 4 3 3 3 3 2 1 2 2 2 2 3
3 1 2 3 5 4 4 2 2 2 3 3 2 2 2 4 4 4 4 4 4 4 4 3 2 3 4 4 3 3 4 3 2 3 3 2 2 2 2 1 1 2 2 3
4 2 2 4 5 5 4 3 3 2 2 1 1 1 2 3 4 4 4 4 4 4 4 2 2 3 4 4 4 4 3 3 3 3 3 2 1 2 2 2 2 2 3 4
4 5 5 6 6 4 5 4 2 2 2 2 2 3 3 2 4 4 4 4 4 4 3 3 3 3 4 4 4 4 3 2 2 2 3 2 1 1 1 2 3 4 3 5
Wind_Direction
37 70 143 212 192 177 163 183 241 259 264 180 234 261 271 248 220 224 219 218 223 229 231 199 191 177 144 137 136 141 144 151 140 137 143 134 141 139 78 94 107 117 118 121
45 346 247 184 153 140 145 188 273 297 308 203 261 283 278 242 223 219 210 211 213 221 218 195 186 176 173 173 167 164 169 157 162 162 156 151 145 138 136 51 79 101 116 123
158 246 139 113 118 137 194 204 229 255 329 7 349 326 315 298 278 259 229 214 208 203 203 202 191 193 185 187 185 184 183 173 168 143 114 92 73 57 51 36 27 52 119 124
200 281 109 100 207 172 244 242 216 220 10 307 20 298 295 298 301 263 239 217 215 213 205 204 199 199 200 202 188 178 177 173 173 148 143 145 155 174 202 193 184 76 100 120
260 216 128 189 245 187 218 285 115 156 168 329 1 190 287 316 287 267 252 232 223 215 204 203 207 207 204 194 181 174 163 164 165 160 156 159 164 178 157 116 107 84 63 100
256 259 192 211 262 147 127 63 52 48 74 325 267 189 280 260 246 266 260 243 232 219 209 202 199 189 179 167 165 160 153 161 155 155 155 156 159 155 134 136 148 176 157 83
342 333 322 131 74 29 74 79 27 1 8 261 279 213 254 267 256 245 255 261 250 220 197 189 185 185 178 170 168 157 156 169 170 163 166 171 167 168 173 178 183 184 191 229
39 299 294 319 167 183 158 142 162 206 229 279 319 247 264 284 300 302 293 285 285 205 194 196 196 185 182 181 175 162 165 176 171 171 181 179 169 171 190 186 179 186 203 217
178 258 300 297 160 141 142 161 166 141 166 267 283 288 304 337 359 7 8 21 19 359 203 198 187 180 177 177 185 182 179 181 188 187 179 173 174 176 195 198 187 195 214 214
161 248 304 319 58 45 139 145 105 126 165 255 286 282 268 301 313 333 348 341 327 352 9 96 182 187 175 182 185 177 181 184 192 186 188 193 198 201 202 194 199 213 220 211
133 170 316 6 102 217 98 103 113 124 157 170 253 272 244 243 271 286 297 305 306 302 282 267 210 181 172 159 154 166 182 175 182 191 188 186 201 198 193 203 211 213 214 213
104 124 265 275 271 231 178 163 149 160 222 187 199 264 289 254 272 268 303 318 329 324 319 336 66 120 133 144 159 177 188 188 199 192 183 194 202 189 198 222 224 211 209 216
133 112 26 343 343 3 71 144 151 140 138 173 196 261 307 353 351 330 316 322 336 358 10 26 43 56 198 204 203 204 209 215 214 189 191 206 213 210 220 230 228 213 210 218
118 129 178 211 236 243 266 248 188 158 184 215 223 250 296 315 319 317 308 301 311 335 351 15 356 329 297 264 240 225 232 228 210 192 200 220 226 223 226 229 227 216 212 213
98 167 224 248 263 250 251 257 231 212 211 212 237 239 265 273 273 283 289 295 310 324 330 334 324 317 316 314 296 264 249 244 220 207 220 236 235 230 226 227 229 221 217 223
81 156 228 292 305 286 272 268 248 240 232 230 248 264 270 281 305 314 306 301 296 298 301 306 315 314 305 293 286 276 254 245 223 222 236 246 241 236 232 231 227 217 219 223
127 143 134 273 310 340 282 255 230 223 228 200 230 251 272 307 293 274 285 293 275 291 300 296 289 280 279 278 268 261 256 245 224 229 242 246 243 241 237 236 224 220 224 222
156 142 150 220 12 248 253 263 198 214 269 247 247 273 270 253 273 298 308 312 306 311 313 308 302 297 294 295 291 269 267 241 232 239 247 247 239 240 237 229 227 227 223 221
164 148 143 153 222 276 294 282 205 208 278 259 237 277 318 354 13 342 340 343 301 295 296 299 297 292 300 308 301 278 301 278 254 253 251 249 241 237 232 229 232 231 221 227
89 116 135 152 200 245 261 282 285 131 281 287 225 246 276 50 346 288 314 336 326 318 317 320 325 328 327 320 328 329 312 307 277 265 259 253 245 234 229 230 232 232 222 228
98 108 162 185 223 260 264 290 89 164 263 291 245 238 210 217 237 264 302 318 314 317 321 328 337 331 316 316 332 324 315 296 285 280 278 268 256 238 227 228 232 230 228 227
182 176 190 171 206 253 266 121 173 225 278 301 283 257 241 259 280 298 306 307 313 319 324 331 336 325 319 318 317 309 296 291 304 305 297 293 281 262 256 228 237 238 224 226
202 198 194 196 217 249 260 221 254 198 221 254 259 278 257 277 288 299 301 300 303 304 305 308 303 310 312 312 299 293 295 308 321 324 310 295 292 296 285 248 248 259 243 233
262 185 175 248 270 277 280 284 293 248 230 241 238 251 252 265 275 291 295 301 306 307 304 311 314 309 310 314 310 293 300 315 322 319 308 293 299 312 316 307 271 259 253 249
230 179 197 255 280 305 295 277 270 281 283 300 302 279 260 262 278 280 287 295 298 300 302 302 287 285 293 306 312 315 319 329 327 317 311 298 294 291 308 309 291 272 259 257
205 192 197 236 235 222 260 271 261 261 276 274 301 316 310 275 271 281 283 286 291 294 295 294 294 294 296 302 307 311 311 310 310 309 311 302 296 293 294 303 326 323 303 299
Height
1512 1518 1523 1521 1521 1523 1525 1529 1531 1527 1521 1523 1525 1524 1520 1519 1519 1519 1520 1521 1522 1523 1524 1526 1527 1529 1529 1530 1530 1531 1532 1533 1534 1535 1535 1536 1536 1537 1538 1538 1539 1539 1539 1540
1519 1522 1518 1517 1518 1521 1525 1529 1530 1526 1521 1522 1524 1523 1519 1517 1517 1516 1517 1518 1519 1521 1522 1524 1526 1527 1528 1529 1530 1530 1532 1533 1533 1534 1535 1536 1536 1537 1537 1538 1538 1539 1539 1539
1521 1520 1515 1517 1520 1523 1525 1528 1528 1527 1523 1522 1524 1526 1521 1516 1516 1516 1516 1516 1517 1519 1520 1522 1523 1525 1526 1528 1529 1530 1531 1532 1533 1534 1535 1535 1536 1536 1537 1537 1537 1538 1538 1538
1519 1516 1516 1518 1521 1522 1528 1521 1522 1524 1530 1535 1530 1541 1526 1519 1516 1514 1514 1515 1515 1517 1518 1520 1522 1523 1525 1526 1528 1529 1530 1531 1532 1533 1533 1534 1534 1534 1535 1536 1536 1537 1537 1537
1519 1517 1517 1520 1519 1518 1521 1519 1521 1524 1529 1536 1534 1539 1532 1521 1519 1514 1512 1512 1513 1514 1516 1517 1520 1521 1523 1525 1527 1528 1529 1530 1531 1532 1532 1533 1533 1534 1534 1535 1535 1536 1536 1536
1517 1515 1515 1516 1515 1516 1518 1522 1526 1531 1536 1544 1536 1539 1536 1525 1518 1513 1510 1510 1510 1512 1513 1515 1518 1520 1521 1523 1525 1526 1527 1528 1529 1530 1531 1531 1532 1532 1533 1533 1534 1534 1534 1534
1522 1517 1515 1514 1517 1518 1521 1532 1545 1546 1551 1548 1535 1536 1532 1516 1512 1511 1509 1509 1509 1510 1511 1513 1515 1517 1519 1521 1522 1524 1525 1526 1527 1528 1529 1529 1530 1530 1531 1531 1532 1532 1532 1532
1530 1530 1517 1515 1517 1521 1523 1529 1545 1552 1553 1548 1537 1537 1525 1513 1510 1509 1508 1508 1508 1508 1510 1511 1512 1514 1517 1519 1520 1521 1523 1524 1525 1526 1526 1527 1528 1528 1529 1529 1530 1530 1530 1530
1530 1529 1516 1514 1514 1517 1524 1529 1530 1542 1545 1549 1542 1531 1519 1511 1510 1509 1508 1507 1507 1507 1508 1509 1510 1512 1514 1516 1518 1519 1521 1522 1523 1523 1524 1525 1525 1526 1526 1527 1527 1528 1528 1528
1522 1527 1519 1516 1515 1517 1520 1525 1535 1541 1548 1551 1542 1535 1530 1517 1514 1511 1509 1508 1507 1507 1507 1508 1509 1510 1512 1514 1516 1517 1518 1519 1520 1521 1522 1522 1522 1523 1523 1524 1524 1525 1525 1525
1520 1527 1525 1520 1520 1521 1523 1527 1532 1540 1542 1550 1549 1539 1518 1516 1513 1512 1510 1508 1508 1507 1507 1507 1507 1508 1510 1512 1513 1515 1515 1516 1517 1518 1519 1519 1519 1520 1520 1520 1521 1521 1522 1522
1521 1528 1532 1525 1518 1517 1518 1522 1529 1538 1541 1543 1545 1538 1513 1512 1511 1510 1509 1508 1507 1507 1507 1506 1507 1507 1508 1509 1511 1512 1512 1513 1514 1515 1515 1516 1516 1516 1516 1517 1517 1518 1518 1518
1521 1529 1537 1533 1528 1521 1520 1521 1524 1530 1538 1544 1544 1533 1512 1511 1510 1509 1509 1508 1507 1507 1506 1506 1506 1506 1507 1507 1508 1509 1509 1510 1511 1511 1512 1512 1512 1512 1513 1513 1514 1514 1514 1515
1518 1527 1533 1535 1530 1523 1522 1521 1522 1528 1535 1537 1533 1524 1515 1511 1510 1509 1508 1507 1507 1506 1505 1505 1505 1504 1505 1505 1505 1506 1506 1507 1507 1508 1508 1508 1508 1509 1509 1510 1510 1510 1511 1511
1518 1526 1525 1524 1521 1520 1520 1519 1519 1522 1524 1527 1522 1519 1513 1510 1509 1508 1507 1506 1505 1505 1504 1504 1503 1503 1502 1502 1502 1502 1502 1503 1503 1504 1504 1504 1504 1505 1505 1505 1506 1506 1506 1506
1519 1524 1524 1524 1520 1519 1520 1517 1517 1517 1517 1518 1516 1515 1509 1508 1507 1506 1505 1504 1504 1503 1503 1503 1502 1501 1500 1499 1499 1498 1498 1499 1499 1500 1500 1500 1500 1500 1500 1501 1501 1502 1502 1502
1522 1524 1528 1530 1524 1520 1523 1516 1514 1514 1513 1514 1515 1512 1507 1507 1506 1505 1504 1503 1502 1502 1502 1501 1500 1499 1498 1496 1495 1495 1495 1495 1495 1495 1496 1496 1496 1495 1495 1496 1496 1497 1497 1497
1521 1525 1530 1532 1527 1530 1519 1509 1509 1510 1509 1509 1508 1507 1506 1505 1504 1504 1503 1503 1501 1500 1499 1498 1497 1496 1495 1494 1492 1492 1491 1491 1491 1491 1491 1491 1491 1490 1491 1491 1491 1492 1492 1493
1516 1523 1530 1535 1532 1525 1515 1509 1509 1510 1509 1506 1506 1505 1504 1504 1503 1502 1502 1502 1501 1500 1498 1497 1495 1494 1492 1491 1490 1488 1488 1487 1487 1486 1486 1486 1486 1485 1485 1485 1486 1487 1487 1487
1517 1520 1528 1533 1530 1527 1514 1506 1505 1508 1510 1505 1504 1504 1504 1503 1506 1503 1501 1500 1499 1498 1496 1495 1493 1491 1490 1488 1487 1486 1484 1484 1483 1482 1482 1481 1481 1480 1480 1481 1481 1482 1482 1482
1521 1524 1527 1529 1528 1520 1509 1505 1506 1515 1511 1504 1502 1502 1502 1503 1503 1501 1499 1498 1497 1495 1494 1492 1491 1489 1487 1486 1485 1483 1481 1480 1480 1479 1478 1477 1476 1476 1476 1476 1477 1477 1478 1478
1519 1522 1525 1527 1527 1520 1505 1505 1508 1507 1503 1502 1502 1501 1501 1501 1499 1498 1497 1496 1494 1493 1491 1490 1488 1486 1485 1484 1483 1481 1479 1478 1477 1475 1474 1473 1472 1472 1472 1472 1472 1473 1473 1473
1514 1513 1514 1515 1513 1506 1504 1503 1503 1503 1502 1502 1501 1501 1500 1499 1497 1496 1495 1494 1492 1491 1489 1487 1486 1484 1483 1482 1480 1479 1477 1475 1473 1472 1471 1470 1469 1468 1468 1468 1468 1468 1468 1468
1510 1508 1510 1510 1505 1503 1502 1501 1501 1501 1501 1500 1500 1499 1498 1497 1495 1494 1493 1491 1490 1488 1486 1485 1483 1482 1480 1479 1478 1477 1475 1473 1471 1469 1468 1467 1466 1465 1465 1465 1465 1465 1464 1464
1507 1507 1508 1507 1503 1501 1500 1500 1499 1499 1498 1498 1497 1497 1496 1495 1493 1492 1490 1489 1487 1485 1484 1482 1481 1479 1478 1477 1476 1474 1472 1470 1468 1467 1465 1464 1463 1463 1462 1462 1462 1461 1461 1461
1503 1504 1505 1503 1499 1500 1498 1498 1497 1497 1496 1496 1495 1494 1493 1493 1491 1490 1488 1486 1485 1483 1481 1480 1479 1477 1476 1474 1473 1471 1470 1468 1466 1464 1462 1461 1460 1459 1459 1458 1458 1458 1458 1457